This demonstration page uses our WeatherBlox Daily Observations layout. Learn more.

Left ArrowRight Arrow

31.31129, -92.44514

Hourly Observations for December 31, 2021

Temp ( °F °C ) Dew Point ( °F °C ) Humidity (%) Winds ( mph kmh ) Pressure ( in mb ) Visibility ( mi km ) Precip ( " mm )
12:06 am 00:06 Cloudy with Mist and Fog 72 22.2 68 20 87 87 S 5 7 29.86 1011 6 10 0.00 0.00
12:53 am 00:53 Cloudy with Mist and Fog 72 22.2 68 20 87 87 S 5 7 29.86 1011 6 10 0.00 0.00
1:53 am 01:53 Cloudy with Mist and Fog 72 22.2 68 20 87 87 SSW 7 11 29.85 1011 6 10 0.00 0.00
2:53 am 02:53 Cloudy with Mist and Fog 72 22.2 68 20 87 87 SSW 9 15 29.84 1011 6 10 0.00 0.00
3:53 am 03:53 Mostly Cloudy with Mist and Fog 72 22.2 68 20 87 87 SSW 5 7 29.84 1011 5 8 0.00 0.00
4:53 am 04:53 Cloudy with Haze 73 22.8 68 20 84 84 SSW 6 9 29.84 1011 5 8 0.00 0.00
5:15 am 05:15 Mostly Cloudy with Mist and Fog 72 22.2 68 20 87 87 SW 5 7 29.84 1010 5 8 0.00 0.00
5:30 am 05:30 Cloudy with Mist and Fog 72 22.2 68 20 87 87 SW 3 6 29.84 1010 5 8 0.00 0.00
5:53 am 05:53 Cloudy with Mist and Fog 72 22.2 69 20.6 91 91 Calm 29.86 1011 5 8 0.00 0.00
6:04 am 06:04 Cloudy with Mist and Fog 72 22.2 68 20 87 87 SW 3 6 29.85 1011 5 8 0.00 0.00
6:32 am 06:32 Cloudy with Mist and Fog 72 22.2 68 20 87 87 Calm 29.85 1011 5 8 0.00 0.00
6:53 am 06:53 Cloudy with Mist and Fog 72 22.2 68 20 87 87 SSW 3 6 29.86 1011 5 8 0.00 0.00
7:53 am 07:53 Cloudy with Mist and Fog 73 22.8 69 20.6 87 87 SSW 5 7 29.87 1012 4 6 0.00 0.00
8:53 am 08:53 Mostly Cloudy with Haze 75 23.9 70 21.1 84 84 SSW 10 17 29.88 1012 5 8 0.00 0.00
9:09 am 09:09 Cloudy with Haze 75 23.9 70 21.1 84 84 SSW 12 19 29.88 1012 5 8 0.00 0.00
9:53 am 09:53 Hazy 77 25 69 20.6 77 77 SSW 15 24 29.89 1012 6 10 0.00 0.00
10:36 am 10:36 Mostly Cloudy 78 25.6 69 20.6 74 74 SSW 13 20 29.89 1012 7 11 0.00 0.00
10:53 am 10:53 Cloudy 78 25.6 68 20 71 71 SW 10 17 29.89 1012 7 11 0.00 0.00
11:09 am 11:09 Mostly Cloudy 79 26.1 69 20.6 72 72 SW 9 15 29.87 1011 7 11 0.00 0.00
11:53 am 11:53 Mostly Cloudy 82 27.8 68 20 63 63 SSW 14 22 29.85 1011 7 11 0.00 0.00
12:53 pm 12:53 Mostly Sunny 83 28.3 68 20 61 61 SSW 15 24 29.81 1010 7 11 0.00 0.00
1:53 pm 13:53 Partly Cloudy 82 27.8 67 19.4 60 60 SSW 17 28 29.78 1009 7 11 0.00 0.00
2:53 pm 14:53 Mostly Cloudy 83 28.3 67 19.4 59 59 SSW 18 30 29.78 1008 7 11 0.00 0.00
3:53 pm 15:53 Partly Cloudy 81 27.2 66 18.9 61 61 SSW 15 24 29.79 1009 8 13 0.00 0.00
4:53 pm 16:53 Partly Cloudy 79 26.1 66 18.9 65 65 SSW 12 19 29.79 1009 7 11 0.00 0.00
5:53 pm 17:53 Clear 76 24.4 67 19.4 74 74 S 13 20 29.80 1009 9 14 0.00 0.00
6:53 pm 18:53 Clear 75 23.9 66 18.9 74 74 S 15 24 29.80 1009 10 16 0.00 0.00
7:53 pm 19:53 Cloudy 74 23.3 67 19.4 79 79 S 10 17 29.81 1009 10 16 0.00 0.00
8:53 pm 20:53 Mostly Cloudy 73 22.8 67 19.4 81 81 S 8 13 29.80 1009 10 16 0.00 0.00
9:42 pm 21:42 Mostly Cloudy 74 23.3 68 20 82 82 S 13 20 29.79 1009 10 16 0.00 0.00
9:53 pm 21:53 Mostly Cloudy 74 23.3 68 20 82 82 S 14 22 29.80 1009 10 16 0.00 0.00
10:05 pm 22:05 Partly Cloudy 74 23.3 69 20.6 85 85 S 12 19 29.79 1009 10 16 0.00 0.00
10:29 pm 22:29 Mostly Cloudy 74 23.3 69 20.6 85 85 S 10 17 29.79 1009 10 16 0.00 0.00
10:53 pm 22:53 Mostly Cloudy 74 23.3 69 20.6 85 85 S 13 20 29.79 1009 10 16 0.00 0.00
11:00 pm 23:00 Mostly Clear 74 23.3 69 20.6 85 85 S 14 22 29.78 1008 10 16 0.00 0.00
11:53 pm 23:53 Mostly Clear 75 23.9 68 20 79 79 S 15 24 29.78 1008 10 16 0.00 0.00

Powered by AerisWeather